Regional Weather Roundup
Issued by NWS

Home | Current Version | Previous Version | Text Only | Print | Product List | Glossary Off
Versions: 1 2 3 4 5 6 7 8 9 10 11 12 13 14 15 16 17 18 19 20 21 22 23 24 25 26 27 28 29 30 31 32 33 34 35 36 37 38 39 40 41 42 43 44 45 46 47 48 49 50

908
ASUS45 KBOU 152307
RWRCO

WEATHER ROUNDUP FOR COLORADO
NATIONAL WEATHER SERVICE DENVER/BOULDER CO
500 PM MDT TUE AUG 15 2017

NOTE: "FAIR" INDICATES FEW OR NO CLOUDS BELOW 12000 FEET WITH NO
SIGNIFICANT WEATHER AND/OR OBSTRUCTIONS TO VISIBILITY.

COZ001>005-013-030-031-160000-
...NORTHWEST COLORADO...

CITY           SKY/WX    TMP DP  RH WIND       PRES   REMARKS
CRAIG          PTSUNNY   65  45  48 N17G23    30.09R
HAYDEN         CLOUDY    59  48  67 N12       30.12R
MEEKER         PTSUNNY   70  40  33 W10       30.06R
RABBIT EARS PA NOT AVBL
STEAMBOAT SPGS PTSUNNY   61  45  55 NW21G31   30.10R
WALDEN         NOT AVBL
$$

COZ006>008-011-160000-
...WEST CENTRAL VALLEYS...

CITY           SKY/WX    TMP DP  RH WIND       PRES   REMARKS
GRAND JUNCTION FAIR      79  35  20 W13       29.94R
MONTROSE       FAIR      77  28  16 SW12      30.02S
EAGLE          FAIR      74  36  25 NW14      30.05R
RIFLE          PTSUNNY   78  30  17 W12       29.97R
DELTA          NOT AVBL
NUCLA          FAIR      77  21  12 SW14G25   30.07F
$$

COZ017>023-064>068-160000-
...SOUTHWEST COLORADO...

CITY           SKY/WX    TMP DP  RH WIND       PRES   REMARKS
DURANGO        FAIR      72  24  16 W15       30.10S
CORTEZ         FAIR      76  32  20 S9        30.05F
PAGOSA SPRINGS FAIR      71  25  17 SW12G26   30.16S
TELLURIDE      FAIR      62  24  23 SW10      30.27S
WOLF CREEK PAS NOT AVBL
$$

COZ009-010-012-014-032>034-037-058>063-160000-
...CENTRAL COLORADO...

CITY           SKY/WX    TMP DP  RH WIND       PRES   REMARKS
ASPEN          PTSUNNY   72  28  19 SW15G22   30.10R
BUENA VISTA    FAIR      71  18  13 W13       30.10S
COPPER MTN     TSTM      54  32  43 W17       30.39F
BERTHOUD PASS  CLOUDY    46  43  87 W9        30.41S
COTTONWOOD PAS NOT AVBL
GUNNISON       FAIR      71  26  18 W16       30.13S
KREMMLING      FAIR      79  27  14 W14G28    30.06S
LEADVILLE      FAIR      60  25  26 W7        30.23R
SALIDA         FAIR      71  33  24 NE3       30.15F
SUNLIGHT       NOT AVBL
WILKERSON PASS FAIR      57  21  24 SW16G22   30.35F
$$

COZ069>075-160000-
...SAN LUIS VALLEY/SANGRE DE CRISTO MOUNTAINS...

CITY           SKY/WX    TMP DP  RH WIND       PRES   REMARKS
ALAMOSA        FAIR      71  34  25 SW16      30.09S
DEL NORTE      FAIR      68  34  28 SW12G17   30.14S
LA VETA PASS   NOT AVBL
SAGUACHE       NOT AVBL
$$

COZ035-036-038>040-160000-
...NORTHERN COLORADO FRONT RANGE...

CITY           SKY/WX    TMP DP  RH WIND       PRES   REMARKS
DENVER INTL AP PTSUNNY   80  47  31 N5        29.88S
DMNS CITY PARK   N/A     80  42  26 E9        29.87S
AURORA         PTSUNNY   77  49  37 E5        29.91R
FRONT RANGE AP PTSUNNY   81  50  34 E7        29.91S
ERIE MUNI ARPT FAIR      85  35  16 SW8       29.89F
BOULDER MUN AP FAIR      81  39  22 S5        29.86F
CENTENNIAL     PTSUNNY   70  51  51 SE18G31   29.94R THUNDER
BROOMFIELD     PTSUNNY   81  43  26 SW6       29.90S
FORT COLLINS   FAIR      78  54  43 N8        29.86F
LONGMONT       FAIR      83  51  33 N8        29.87F
$$

COZ041-046-047-076>085-087-088-160000-
...PIKES PEAK/PALMER DIVIDE AND SOUTHERN FOOTHILLS...

CITY           SKY/WX    TMP DP  RH WIND       PRES   REMARKS
COLO. SPRINGS  PTSUNNY   85  45  24 N10       29.93S
A. F. ACADEMY  PTSUNNY   78  44  29 NW10      29.94F
SCHRIEVER AFB  FAIR      82  37  20 S17G23    29.93S
CHEYENNE MTN   FAIR      77  42  28 W3        29.93F
ELLICOTT       FAIR       1  32 100 S14       29.91S WCI -17
FALCON         PTSUNNY   75  44  32 N7G16     30.00S
FORT CARSON    SUNNY     85  39  20 W10G20    29.89S
LIMON          FAIR      72  56  57 SE15      29.89R
MONUMENT HILL  NOT AVBL
CANON CITY     SUNNY     86  45  23 W10       29.85F
WALSENBURG     FAIR      86  34  15 W20       29.92F
TRINIDAD       PTSUNNY   78  47  33 E17G33    29.93R
$$

COZ042>045-048>051-090-091-160000-
...NORTHEAST COLORADO...

CITY           SKY/WX    TMP DP  RH WIND       PRES   REMARKS
GREELEY ARPT   FAIR      81  57  44 SE8       29.84S
AKRON          FAIR      82  58  43 E10       29.82F
BURLINGTON     FAIR      85  64  49 S17G25    29.83S
WRAY           NOT AVBL
YUMA           NOT AVBL
STERLING       NOT AVBL
HOLYOKE        FAIR      86  64  48 S14       29.79F
FORT MORGAN    FAIR      82  57  41 E9        29.82F
$$

COZ086-089-092>099-160000-
...SOUTHEAST COLORADO...

CITY           SKY/WX    TMP DP  RH WIND       PRES   REMARKS
PUEBLO         FAIR      88  52  29 SE17G25   29.80S
LA JUNTA       LGT RAIN  84  54  35 S16       29.81S
LAMAR          FAIR      83  64  52 S6        29.76S
SPRINGFIELD      N/A     83  60  45 S9        29.84R
$$




USA.gov is the U.S. government's official web portal to all federal, state and local government web resources and services.